Home   Weather   Nãgpur   Past weeks

Flag for India Past Weather in Nãgpur, Maharashtra, India — Yesterday and Last 2 Weeks

Now
81 °F

Mostly cloudy.


Feels Like: 87 °F
Forecast: 77 / 85 °F
Wind: No wind

Location: Nagpur Sonegaon

Current Time: Aug 30, 2016 at 10:58:35 PM

Latest Report: Aug 30, 2016 at 9:30 PM


Visibility: 2 mi

Pressure: 29.74 "Hg

Humidity: 89%

Dew Point: 77 °F

Location of NãgpurLocation

Past Weather in Nãgpur — Graph

°F

Nãgpur Temperature Yesterday

Maximum temperature yesterday: 93 °F (at 1:00 PM)
Minimum temperature yesterday: 81 °F (at 4:00 AM)
Average temperature yesterday: 87 °F

High & Low Weather Summary for the Past Weeks

 TemperatureHumidityPressure
High95 °F (Aug 25, 4:30 PM)94% (Aug 24, 6:30 AM)29.80 "Hg (Aug 24, 6:30 AM)
Low75 °F (Aug 17, 4:30 AM)33% (Aug 17, 12:30 PM)29.53 "Hg (Aug 16, 4:30 PM)
Average84 °F72%29.67 "Hg
* Reported Aug 15 9:30 PM — Aug 30 9:30 PM, Nãgpur, Weather by CustomWeather, © 2016

Note: Actual official high and low records may vary slightly from our data, if they occured in-between our weather recording intervals... More about our weather records

Advertising

Nãgpur Weather History for the Previous 24 Hours

Scroll right to see more
 ConditionsComfort  
Time TempWeatherWind HumidityBarometerVisibility
9:30 PM
Tue, Aug 30
81 °FMostly cloudy.No wind89%29.74 "Hg1 mi
9:00 PM81 °FThunderstorms. Mostly cloudy.No wind89%29.74 "Hg1 mi
8:00 PM81 °FThunderstorms. Mostly cloudy.No wind89%29.71 "Hg1 mi
6:30 PM81 °FThunderstorms. More clouds than sun.No wind84%29.68 "Hg1 mi
5:30 PM79 °FThunderstorms. Broken clouds.3 mph84%29.62 "Hg2 mi
4:30 PM81 °FThunderstorms. Broken clouds.10 mph79%29.59 "Hg2 mi
3:30 PM88 °FThunderstorms. Scattered clouds.12 mph66%29.59 "Hg2 mi
3:00 PM95 °FScattered clouds.No wind60%29.59 "Hg2 mi
2:30 PM93 °FScattered clouds.No wind59%29.59 "Hg2 mi
2:00 PM91 °FScattered clouds.2 mph63%29.59 "Hg2 mi
1:30 PM93 °FBroken clouds.3 mph56%29.65 "Hg2 mi
1:00 PM95 °FScattered clouds.2 mph56%29.65 "Hg2 mi
12:00 PM93 °FScattered clouds.3 mph59%29.68 "Hg2 mi
11:30 AM93 °FScattered clouds.No wind59%29.68 "Hg2 mi
11:00 AM91 °FScattered clouds.3 mph59%29.68 "Hg2 mi
10:30 AM91 °FScattered clouds.2 mph63%29.71 "Hg2 mi
10:00 AM90 °FScattered clouds.3 mph67%29.71 "Hg2 mi
9:30 AM88 °FScattered clouds.3 mph66%29.71 "Hg2 mi
8:30 AM88 °FScattered clouds.No wind66%29.71 "Hg2 mi
7:30 AM84 °FPartly sunny.No wind79%29.68 "Hg2 mi
7:00 AM81 °FPartly sunny.No wind84%29.68 "Hg1 mi
5:30 AM82 °FPassing clouds.2 mph84%29.65 "Hg2 mi
5:00 AM82 °FPassing clouds.No wind84%29.65 "Hg2 mi
3:30 AM82 °FPassing clouds.2 mph79%29.65 "Hg2 mi
2:30 AM84 °FHaze.8 mph79%29.65 "Hg2 mi
1:30 AM82 °FHaze.2 mph84%29.68 "Hg2 mi
1:00 AM82 °FHaze.No wind84%29.68 "Hg2 mi
12:30 AM82 °FHaze.2 mph84%29.68 "Hg2 mi
10:30 PM
Mon, Aug 29
82 °FHaze.6 mph84%29.74 "Hg2 mi
10:00 PM82 °FHaze.2 mph84%29.74 "Hg2 mi
Weather by CustomWeather, © 2016

See weather overviewHow to use our weather pages